Tiempo atmosférico en la estación meteorológica de Becerreá, Lugo (1080 m.)



Fecha
DESCASC
Temp. máxima en grados centígrados (hora)
DESCASC
Temp. mínima en grados centígrados (hora)
DESCASC
Temp. media en grados centígrados
DESCASC
Racha de viento máxima en m/sg (hora)
DESCASC
Velocidad máxima media en intervalos de 10 minutos(hora)
DESCASC
Precipitaciones diarias en mm
DESCASC
Precipitaciones de 00:00 a 06:00 en mm
DESCASC
Precipitaciones de 06:00 a 12:00 en mm
DESCASC
Precipitaciones de 12:00 a 18:00 en mm
DESCASC
Precipitaciones de 18:00 a 24:00 en mm
DESCASC
23-05-2018 20.3 (16:50) 10.4 (04:10) 15.3 7.78 (20:20) 5 (20:30) 2.8 0 0 0 2.8
22-05-2018 20.2 (16:00) 9.9 (03:50) 15.1 7.22 (06:10) 4.72 (05:40) 0 0 0 0 0
21-05-2018 18.9 (14:40) 10.5 (23:30) 14.7 6.39 (13:10) 4.17 (19:40) 7.4 0 0 1.2 6.2
20-05-2018 20.1 (16:20) 8.3 (00:00) 14.2 6.11 (18:10) 3.33 (06:20) 0 0 0 0 0
19-05-2018 20.4 (16:20) 9.5 (00:00) 14.9 7.5 (18:30) 4.17 (07:30) 0 0 0 0 0
18-05-2018 19 (16:30) 7 (00:00) 13 7.22 (19:10) 2.5 (19:20) 0 0 0 0 0
17-05-2018 18.5 (15:10) 6.3 (00:00) 12.4 8.06 (16:00) 3.06 (22:20) 0 0 0 0 0
16-05-2018 17 (16:30) 5.1 (00:00) 11 7.5 (02:30) 2.5 (02:30) 0 0 0 0 0
15-05-2018 15.4 (16:10) 2.4 (00:00) 8.9 8.06 (17:50) 3.06 (17:50) 0 0 0 0 0
14-05-2018 11.9 (15:30) 4.5 (00:00) 8.2 9.72 (03:00) 6.11 (04:40) 5.6 3.2 2.4 0 0
13-05-2018 4.9 (18:40) 1.5 (00:00) 3.2 8.89 (19:30) 4.44 (19:20) 7.8 0.4 1.4 4.2 1.8
12-05-2018 6.8 (16:30) 1 (00:00) 3.9 10.83 (15:30) 4.72 (02:20) 3.6 0 2.8 0.8 0
11-05-2018 13.4 (00:30) 5.6 (23:59) 9.5 10.28 (22:50) 5.28 (22:50) 7 0 0 0 7
10-05-2018 17.8 (17:20) 4.4 (00:00) 11.1 8.06 (04:00) 3.89 (18:00) 0 0 0 0 0
09-05-2018 12.3 (17:40) 5.1 (00:00) 8.7 7.5 (19:30) 3.33 (16:10) 0 0 0 0 0
08-05-2018 16.8 (13:50) 7.9 (00:00) 12.3 8.61 (15:10) 3.61 (15:00) 0 0 0 0 0
07-05-2018 22 (15:40) 12.9 (00:00) 17.4 6.39 (05:00) 4.17 (05:10) 0 0 0 0 0
06-05-2018 21.2 (16:50) 9.1 (00:00) 15.2 11.11 (02:40) 5.56 (03:10) 0 0 0 0 0
05-05-2018 19.5 (16:40) 3.9 (00:00) 11.7 5.83 (00:50) 3.61 (05:00) 0 0 0 0 0
04-05-2018 14.4 (15:50) 1 (00:00) 7.7 9.44 (19:10) 3.33 (19:00) 0.2 0 0 0.2 0
03-05-2018 9.1 (17:30) 2.6 (00:00) 5.9 9.72 (11:00) 3.33 (12:40) 1.4 1.4 0 0 0
02-05-2018 7.1 (20:10) 1.9 (00:00) 4.5 9.72 (02:30) 4.17 (16:20) 10.2 0.4 0.4 1.8 7.6
01-05-2018 9.9 (17:20) -0.7 (07:20) 4.6 8.61 (21:20) 4.44 (21:20) 0.2 0 0.2 0 0
30-04-2018 6 (16:20) 0 (00:00) 3 8.89 (01:20) 3.61 (01:00) 5.8 0 3.4 2.4 0
29-04-2018 4.7 (12:40) 0 (00:00) 2.3 11.11 (15:50) 4.72 (16:10) 9.4 0.2 0.2 6.4 2.6
28-04-2018 10.2 (16:30) 2 (00:00) 6.1 8.33 (17:10) 3.89 (15:30) 6 0 0 0 6

Gráficas

Temp. máximas Temp. mínimas Temp. medias Precipitaciones Rachas de viento máximas Velocidades máximas media en intervalos de 10 minutos

Datos horarios

Fecha y hora oficial Temperatura (ºC) Velocidad del viento (km/h) Dirección del viento Racha (km/h) Dirección de racha Precipitación (mm) Presión (hPa) Tendencia (hPa) Humedad (%)
2018-05-27 23:00:00 -- -- -- -- -- -- -- -- --
2018-05-27 22:00:00 -- -- -- -- -- -- -- -- --
2018-05-27 21:00:00 -- -- -- -- -- -- -- -- --
2018-05-27 20:00:00 11.9 8 Noroeste 17 Noroeste 0 -- -- --
2018-05-27 19:00:00 13.9 5 Noroeste 22 Noroeste 0 -- -- --
2018-05-27 18:00:00 12.5 7 Oeste 18 Noroeste 0 -- -- --
2018-05-27 17:00:00 12.6 10 Noroeste 20 Oeste 0 -- -- --
2018-05-27 16:00:00 12.1 8 Oeste 22 Oeste 0 -- -- --
2018-05-27 15:00:00 10.7 10 Oeste 20 Oeste 0 -- -- --
2018-05-27 14:00:00 11.6 9 Oeste 19 Oeste 0 -- -- --
2018-05-27 13:00:00 11.7 7 Oeste 20 Oeste 0 -- -- --
2018-05-27 12:00:00 10.7 5 Sudoeste 17 Sudoeste 0 -- -- --
2018-05-27 11:00:00 9.6 6 Oeste 14 Sudoeste 0 -- -- --
2018-05-27 10:00:00 9.5 4 Sudoeste 11 Sudoeste 0.2 -- -- --
2018-05-27 09:00:00 9.1 4 Sudoeste 10 Sur 0 -- -- --
2018-05-27 08:00:00 8.9 4 Sudoeste 14 Oeste 0 -- -- --
2018-05-27 07:00:00 8.9 4 Oeste 7 Oeste 0 -- -- --
2018-05-27 06:00:00 9.1 3 Sudoeste 12 Sudoeste 0 -- -- --
2018-05-27 05:00:00 9 7 Oeste 10 Sudoeste 0 -- -- --
2018-05-27 04:00:00 9.3 4 Sudoeste 9 Sudoeste 0 -- -- --
2018-05-27 03:00:00 9.5 7 Sudoeste 9 Oeste 0 -- -- --
2018-05-27 02:00:00 9.5 3 Sudoeste 8 Oeste 0 -- -- --
2018-05-27 01:00:00 9.5 6 Oeste 9 Sudoeste 0 -- -- --
2018-05-27 00:00:00 10 0 Calma 8 Oeste 0 -- -- --
2018-05-26 23:00:00 10 3 Oeste 12 Noroeste 0 -- -- --
2018-05-26 22:00:00 10.4 7 Oeste 14 Noroeste 0 -- -- --
2018-05-26 21:00:00 11.5 6 Noroeste 18 Oeste 0 -- -- --
2018-05-26 20:00:00 12.4 9 Noroeste 16 Noroeste 0 -- -- --
2018-05-26 19:00:00 12.7 4 Noroeste 12 Oeste 0 -- -- --
2018-05-26 18:00:00 12.5 5 Norte 15 Norte 0 -- -- --
2018-05-26 17:00:00 12.1 5 Norte 13 Nordeste 0 -- -- --
2018-05-26 16:00:00 12.7 0 Calma 8 Norte 0 -- -- --
2018-05-26 15:00:00 11.3 3 Noroeste 9 Noroeste 0 -- -- --
2018-05-26 14:00:00 10.5 4 Oeste 10 Oeste 0 -- -- --
2018-05-26 13:00:00 10.2 5 Oeste 10 Noroeste 0 -- -- --
2018-05-26 12:00:00 9.6 0 Calma 5 Nordeste 0 -- -- --
2018-05-26 11:00:00 9.4 3 Noroeste 6 Oeste 0 -- -- --
2018-05-26 10:00:00 9.4 2 Este 6 Sudeste 0 -- -- --
2018-05-26 09:00:00 9 0 Calma 6 Este 0 -- -- --
2018-05-26 08:00:00 8.7 0 Calma 9 Este 0 -- -- --
2018-05-26 07:00:00 8.7 2 Nordeste 10 Nordeste 0 -- -- --
2018-05-26 06:00:00 8.7 4 Nordeste 13 Nordeste 0 -- -- --
2018-05-26 05:00:00 8.7 3 Nordeste 14 Nordeste 0 -- -- --
2018-05-26 04:00:00 8.8 4 Nordeste 17 Nordeste 0 -- -- --
2018-05-26 03:00:00 8.9 4 Nordeste 18 Sudeste 0 -- -- --
2018-05-26 02:00:00 9 3 Nordeste 16 Norte 0 -- -- --
2018-05-26 01:00:00 9.1 3 Nordeste 16 Este 0 -- -- --
2018-05-26 00:00:00 9.2 5 Nordeste 18 Nordeste 0.4 -- -- --
2018-05-25 23:00:00 9.4 3 Nordeste 16 Norte 0.6 -- -- --
2018-05-25 22:00:00 9.6 4 Nordeste 18 Nordeste 1.4 -- -- --
2018-05-25 21:00:00 9.8 5 Nordeste 19 Norte 1 -- -- --
2018-05-25 20:00:00 10.1 4 Nordeste 15 Nordeste 1.4 -- -- --
2018-05-25 19:00:00 10.5 3 Nordeste 13 Nordeste 1.2 -- -- --
2018-05-25 18:00:00 11 5 Nordeste 15 Nordeste 0.2 -- -- --
2018-05-25 17:00:00 11.2 4 Nordeste 18 Nordeste 0.2 -- -- --
2018-05-25 16:00:00 11.2 4 Nordeste 17 Este 0.2 -- -- --
2018-05-25 15:00:00 11 3 Nordeste 22 Nordeste 0 -- -- --
2018-05-25 14:00:00 11 5 Nordeste 18 Nordeste 0 -- -- --
2018-05-25 13:00:00 11.5 5 Nordeste 17 Sudeste 0 -- -- --
2018-05-25 12:00:00 11.7 3 Nordeste 24 Nordeste 0 -- -- --
2018-05-25 11:00:00 11.1 6 Nordeste 22 Nordeste 0 -- -- --
2018-05-25 10:00:00 10.9 5 Nordeste 19 Este 0 -- -- --
2018-05-25 09:00:00 10.3 5 Nordeste 18 Nordeste 0 -- -- --
2018-05-25 08:00:00 10.2 5 Este 26 Este 0 -- -- --
2018-05-25 07:00:00 10.2 5 Nordeste 20 Nordeste 0 -- -- --
2018-05-25 06:00:00 10.2 6 Nordeste 17 Norte 0 -- -- --
2018-05-25 05:00:00 10.2 5 Nordeste 19 Sudeste 0 -- -- --
2018-05-25 04:00:00 10.4 3 Nordeste 12 Nordeste 0.4 -- -- --
2018-05-25 03:00:00 10.6 2 Este 15 Este 0.4 -- -- --
2018-05-25 02:00:00 10.7 3 Este 39 Este 0 -- -- --
2018-05-25 01:00:00 10.6 4 Este 17 Norte 0 -- -- --
2018-05-25 00:00:00 10.2 6 Nordeste 18 Nordeste 0 -- -- --
2018-05-24 23:00:00 10.3 3 Nordeste 21 Este 0 -- -- --
2018-05-24 22:00:00 10.4 4 Este 19 Nordeste 0 -- -- --
2018-05-24 21:00:00 10.7 2 Nordeste 14 Norte 1.2 -- -- --
2018-05-24 20:00:00 11.4 0 Calma 9 Sudeste 3.8 -- -- --
2018-05-24 19:00:00 11.7 4 Sudeste 18 Noroeste 3.4 -- -- --
2018-05-24 18:00:00 12.5 11 Sur 25 Norte 8.4 -- -- --
2018-05-24 17:00:00 16.9 11 Oeste 18 Oeste 0 -- -- --
2018-05-24 16:00:00 17.8 4 Noroeste 11 Norte 0 -- -- --
2018-05-24 15:00:00 19.1 2 Este 11 Este 0 -- -- --
2018-05-24 14:00:00 19.2 4 Este 12 Este 0 -- -- --
2018-05-24 13:00:00 18.8 3 Este 11 Este 0 -- -- --
2018-05-24 12:00:00 18 3 Este 12 Este 0 -- -- --
2018-05-24 11:00:00 16.7 4 Nordeste 16 Este 0 -- -- --
2018-05-24 10:00:00 15 8 Este 20 Sudeste 0 -- -- --
2018-05-24 09:00:00 13.2 11 Sudeste 19 Sudeste 0 -- -- --
2018-05-24 08:00:00 12.7 12 Sudeste 21 Sudeste 0 -- -- --
2018-05-24 07:00:00 12.2 13 Sudeste 22 Sudeste 0 -- -- --
2018-05-24 06:00:00 12.2 14 Sudeste 25 Sudeste 0 -- -- --
2018-05-24 05:00:00 11.8 10 Sudeste 16 Sudeste 0 -- -- --
2018-05-24 04:00:00 11.7 6 Sudeste 14 Sudeste 0 -- -- --
2018-05-24 03:00:00 11.9 3 Este 6 Este 0 -- -- --
2018-05-24 02:00:00 12.6 6 Sur 13 Sudeste 0 -- -- --
2018-05-24 01:00:00 11.6 5 Sudeste 10 Sudeste 0 -- -- --
2018-05-24 00:00:00 11.9 3 Sudoeste 11 Sudeste 0 -- -- --
2018-05-23 23:00:00 11.8 6 Sudeste 14 Sudeste 0 -- -- --
2018-05-23 22:00:00 12 11 Sudoeste 15 Oeste 0 -- -- --
2018-05-23 21:00:00 11.9 9 Oeste 28 Oeste 1.4 -- -- --
2018-05-23 20:00:00 12.4 10 Noroeste 26 Sudoeste 1.4 -- -- --
2018-05-23 19:00:00 15.3 2 Noroeste 17 Este 0 -- -- --
2018-05-23 18:00:00 17 4 Nordeste 18 Este 0 -- -- --
2018-05-23 17:00:00 19.9 4 Nordeste 22 Noroeste 0 -- -- --
2018-05-23 16:00:00 19.9 9 Noroeste 24 Oeste 0 -- -- --
2018-05-23 15:00:00 18.3 10 Oeste 22 Oeste 0 -- -- --
2018-05-23 14:00:00 18.3 11 Oeste 22 Sudoeste 0 -- -- --
2018-05-23 13:00:00 18 7 Sudoeste 15 Sur 0 -- -- --
2018-05-23 12:00:00 17.1 4 Oeste 14 Sur 0 -- -- --
2018-05-23 11:00:00 16.1 4 Este 15 Sur 0 -- -- --
2018-05-23 10:00:00 15.2 5 Sudeste 20 Sur 0 -- -- --
2018-05-23 09:00:00 14.4 9 Sudeste 28 Sudeste 0 -- -- --
2018-05-23 08:00:00 12.9 13 Sudeste 26 Sudeste 0 -- -- --
2018-05-23 07:00:00 13.2 15 Sudeste 23 Sudeste 0 -- -- --
2018-05-23 06:00:00 13.4 13 Sudeste 26 Sudeste 0 -- -- --
2018-05-23 05:00:00 13.1 13 Sudeste 26 Sudeste 0 -- -- --
2018-05-23 04:00:00 10.5 4 Este 8 Este 0 -- -- --
2018-05-23 03:00:00 11.1 2 Este 10 Sudeste 0 -- -- --
2018-05-23 02:00:00 11.4 3 Este 12 Este 0 -- -- --
2018-05-23 01:00:00 11.9 2 Nordeste 10 Este 0 -- -- --
2018-05-23 00:00:00 12.7 2 Nordeste 9 Este 0 -- -- --
2018-05-22 23:00:00 13.4 3 Nordeste 14 Nordeste 0 -- -- --
2018-05-22 22:00:00 14.2 4 Nordeste 14 Nordeste 0 -- -- --
2018-05-22 21:00:00 15 4 Nordeste 13 Nordeste 0 -- -- --
2018-05-22 20:00:00 15.8 4 Nordeste 14 Noroeste 0 -- -- --
2018-05-22 19:00:00 16.4 8 Noroeste 18 Noroeste 0 -- -- --
2018-05-22 18:00:00 17 8 Oeste 16 Oeste 0 -- -- --
2018-05-22 17:00:00 18.1 10 Oeste 19 Sudoeste 0 -- -- --
2018-05-22 16:00:00 20.2 3 Norte 18 Noroeste 0 -- -- --
2018-05-22 15:00:00 18.1 4 Norte 12 Norte 0 -- -- --
2018-05-22 14:00:00 19 2 Nordeste 9 Este 0 -- -- --
2018-05-22 13:00:00 18.5 2 Este 8 Este 0 -- -- --
2018-05-22 12:00:00 17.5 3 Este 9 Este 0 -- -- --
2018-05-22 11:00:00 15.7 3 Este 11 Sudeste 0 -- -- --
2018-05-22 10:00:00 14.1 4 Este 15 Este 0 -- -- --
2018-05-22 09:00:00 13 4 Sudeste 13 Sudeste 0 -- -- --
2018-05-22 08:00:00 12.1 9 Sur 19 Sudeste 0 -- -- --
2018-05-22 07:00:00 11.8 13 Sudeste 26 Este 0 -- -- --
2018-05-22 06:00:00 11.9 15 Sudeste 24 Sudeste 0 -- -- --
2018-05-22 05:00:00 10.6 9 Sudeste 15 Sudeste 0 -- -- --
2018-05-22 04:00:00 9.9 2 Este 13 Este 0 -- -- --
2018-05-22 03:00:00 10.4 3 Nordeste 10 Este 0 -- -- --
2018-05-22 02:00:00 10.5 4 Este 12 Este 0 -- -- --
2018-05-22 01:00:00 10.6 2 Nordeste 8 Este 0 -- -- --
2018-05-22 00:00:00 10.5 0 Calma 9 Sur 0 -- -- --
2018-05-21 23:00:00 10.7 2 Nordeste 10 Sudeste 0 -- -- --
2018-05-21 22:00:00 11.1 3 Sudeste 10 Norte 0.2 -- -- --
2018-05-21 21:00:00 11.6 7 Oeste 18 Oeste 0 -- -- --
2018-05-21 20:00:00 11.5 7 Sur 21 Sur 1 -- -- --
2018-05-21 19:00:00 11 4 Este 17 Norte 5 -- -- --
2018-05-21 18:00:00 12.9 5 Este 22 Este 1.2 -- -- --
2018-05-21 17:00:00 16.2 8 Sudeste 19 Sur 0 -- -- --
2018-05-21 16:00:00 17.9 4 Noroeste 22 Noroeste 0 -- -- --
2018-05-21 15:00:00 18.4 9 Noroeste 21 Oeste 0 -- -- --
2018-05-21 14:00:00 17.9 10 Noroeste 23 Oeste 0 -- -- --
2018-05-21 13:00:00 17 10 Oeste 21 Oeste 0 -- -- --
2018-05-21 12:00:00 16.6 4 Noroeste 10 Oeste 0 -- -- --
2018-05-21 11:00:00 15.3 3 Norte 11 Oeste 0 -- -- --
2018-05-21 10:00:00 14.4 2 Este 6 Este 0 -- -- --
2018-05-21 09:00:00 12.9 5 Sudoeste 11 Sur 0 -- -- --
2018-05-21 08:00:00 12.6 6 Sur 12 Sur 0 -- -- --
2018-05-21 07:00:00 12.2 10 Sur 16 Sur 0 -- -- --
2018-05-21 06:00:00 12.3 10 Sur 17 Sur 0 -- -- --
2018-05-21 05:00:00 12 9 Sudeste 15 Sur 0 -- -- --
2018-05-21 04:00:00 12 5 Sudoeste 9 Sur 0 -- -- --
2018-05-21 03:00:00 12.5 7 Sudoeste 12 Oeste 0 -- -- --
2018-05-21 02:00:00 12.9 5 Sudeste 13 Sudoeste 0 -- -- --
2018-05-21 01:00:00 11.1 3 Sudeste 10 Sudeste 0 -- -- --
2018-05-21 00:00:00 11.6 2 Este 8 Sudeste 0 -- -- --
2018-05-20 23:00:00 12.5 0 Calma 9 Este 0 -- -- --
2018-05-20 22:00:00 13.4 3 Nordeste 15 Noroeste 0 -- -- --
2018-05-20 21:00:00 15 5 Norte 16 Norte 0 -- -- --
2018-05-20 20:00:00 16.2 5 Norte 18 Nordeste 0 -- -- --
2018-05-20 19:00:00 17.8 5 Norte 22 Noroeste 0 -- -- --
2018-05-20 18:00:00 18.7 8 Norte 22 Norte 0 -- -- --
2018-05-20 17:00:00 19.7 8 Norte 22 Norte 0 -- -- --
2018-05-20 16:00:00 19.8 5 Norte 19 Norte 0 -- -- --
2018-05-20 15:00:00 19.1 3 Nordeste 17 Norte 0 -- -- --
2018-05-20 14:00:00 17.6 6 Norte 17 Norte 0 -- -- --
2018-05-20 13:00:00 18 5 Este 11 Nordeste 0 -- -- --
2018-05-20 12:00:00 16.9 4 Este 10 Este 0 -- -- --
2018-05-20 11:00:00 14.2 3 Este 14 Este 0 -- -- --
2018-05-20 10:00:00 12.2 4 Este 11 Este 0 -- -- --
2018-05-20 09:00:00 11 3 Este 14 Sudeste 0 -- -- --
2018-05-20 08:00:00 10.9 7 Sudeste 19 Sudeste 0 -- -- --
2018-05-20 07:00:00 10.5 9 Sudeste 21 Sudeste 0 -- -- --
2018-05-20 06:00:00 10.3 10 Sudeste 22 Sudeste 0 -- -- --
2018-05-20 05:00:00 8.6 7 Sudeste 12 Sudeste 0 -- -- --
2018-05-20 04:00:00 8.5 4 Sudeste 16 Este 0 -- -- --
2018-05-20 03:00:00 9 3 Este 12 Este 0 -- -- --
2018-05-20 02:00:00 9.6 3 Este 12 Este 0 -- -- --
2018-05-20 01:00:00 10.1 3 Nordeste 11 Nordeste 0 -- -- --
2018-05-20 00:00:00 10.7 3 Nordeste 14 Este 0 -- -- --
2018-05-19 23:00:00 11.5 4 Nordeste 25 Nordeste 0 -- -- --
2018-05-19 22:00:00 12.7 8 Nordeste 19 Nordeste 0 -- -- --
2018-05-19 21:00:00 14.4 6 Nordeste 21 Norte 0 -- -- --
2018-05-19 20:00:00 16 7 Nordeste 22 Este 0 -- -- --
2018-05-19 19:00:00 17.9 9 Nordeste 27 Nordeste 0 -- -- --
2018-05-19 18:00:00 19.6 7 Nordeste 20 Nordeste 0 -- -- --
2018-05-19 17:00:00 19.5 6 Noroeste 17 Noroeste 0 -- -- --
2018-05-19 16:00:00 19.3 6 Norte 17 Nordeste 0 -- -- --
2018-05-19 15:00:00 19 6 Noroeste 18 Noroeste 0 -- -- --
2018-05-19 14:00:00 17.2 4 Norte 12 Nordeste 0 -- -- --
2018-05-19 13:00:00 18.5 3 Nordeste 10 Este 0 -- -- --
2018-05-19 12:00:00 17.5 4 Este 15 Este 0 -- -- --
2018-05-19 11:00:00 15.3 4 Sudeste 19 Este 0 -- -- --
2018-05-19 10:00:00 14 5 Sudeste 21 Este 0 -- -- --
2018-05-19 09:00:00 12.6 10 Sudeste 26 Sudeste 0 -- -- --
2018-05-19 08:00:00 11.2 13 Sudeste 26 Sudeste 0 -- -- --
2018-05-19 07:00:00 11 14 Sudeste 23 Sudeste 0 -- -- --
2018-05-19 06:00:00 10.7 14 Sudeste 23 Sudeste 0 -- -- --
2018-05-19 05:00:00 9.6 4 Este 12 Nordeste 0 -- -- --
2018-05-19 04:00:00 9.8 2 Este 9 Este 0 -- -- --
2018-05-19 03:00:00 10.2 2 Este 11 Este 0 -- -- --
2018-05-19 02:00:00 10.7 3 Nordeste 9 Este 0 -- -- --
2018-05-19 01:00:00 10.7 3 Este 10 Este 0 -- -- --
2018-05-19 00:00:00 11.2 2 Este 11 Sudeste 0 -- -- --
2018-05-18 23:00:00 11.6 2 Este 15 Este 0 -- -- --
2018-05-18 22:00:00 12.6 3 Este 13 Este 0 -- -- --
2018-05-18 21:00:00 13.2 5 Nordeste 20 Nordeste 0 -- -- --
2018-05-18 20:00:00 14.6 7 Nordeste 26 Norte 0 -- -- --
2018-05-18 19:00:00 16.8 8 Nordeste 22 Nordeste 0 -- -- --
2018-05-18 18:00:00 18.1 4 Nordeste 15 Nordeste 0 -- -- --
2018-05-18 17:00:00 18.8 4 Nordeste 16 Nordeste 0 -- -- --
2018-05-18 16:00:00 18.7 5 Nordeste 17 Nordeste 0 -- -- --
2018-05-18 15:00:00 18.4 4 Este 19 Nordeste 0 -- -- --
2018-05-18 14:00:00 17.5 4 Nordeste 17 Este 0 -- -- --
2018-05-18 13:00:00 15.7 4 Este 16 Nordeste 0 -- -- --
2018-05-18 12:00:00 13.3 4 Nordeste 13 Nordeste 0 -- -- --
2018-05-18 11:00:00 10.4 4 Nordeste 17 Nordeste 0 -- -- --
2018-05-18 10:00:00 8.2 5 Nordeste 18 Este 0 -- -- --
2018-05-18 09:00:00 7.5 4 Este 19 Nordeste 0 -- -- --
2018-05-18 08:00:00 7.1 3 Nordeste 23 Este 0 -- -- --
2018-05-18 07:00:00 7.1 6 Nordeste 22 Nordeste 0 -- -- --
2018-05-18 06:00:00 7.1 4 Nordeste 15 Este 0 -- -- --
2018-05-18 05:00:00 7.4 3 Nordeste 15 Sudeste 0 -- -- --
2018-05-18 04:00:00 8 3 Nordeste 19 Nordeste 0 -- -- --
2018-05-18 03:00:00 8.3 4 Nordeste 17 Nordeste 0 -- -- --
2018-05-18 02:00:00 8.3 3 Nordeste 14 Nordeste 0 -- -- --
2018-05-18 01:00:00 8.8 5 Nordeste 17 Nordeste 0 -- -- --
2018-05-18 00:00:00 9.1 4 Nordeste 19 Nordeste 0 -- -- --
2018-05-17 23:00:00 10 4 Nordeste 26 Nordeste 0 -- -- --
2018-05-17 22:00:00 10.6 6 Nordeste 26 Nordeste 0 -- -- --
2018-05-17 21:00:00 12 6 Nordeste 23 Norte 0 -- -- --
2018-05-17 20:00:00 13.2 6 Nordeste 21 Nordeste 0 -- -- --
2018-05-17 19:00:00 15.1 7 Nordeste 22 Nordeste 0 -- -- --
2018-05-17 18:00:00 16.5 6 Nordeste 24 Nordeste 0 -- -- --
2018-05-17 17:00:00 16.6 7 Nordeste 27 Nordeste 0 -- -- --
2018-05-17 16:00:00 18.2 9 Nordeste 29 Nordeste 0 -- -- --
2018-05-17 15:00:00 18.3 9 Nordeste 24 Nordeste 0 -- -- --
2018-05-17 14:00:00 16.7 7 Nordeste 16 Nordeste 0 -- -- --
2018-05-17 13:00:00 16.6 3 Nordeste 14 Este 0 -- -- --
2018-05-17 12:00:00 14.3 3 Este 16 Sudeste 0 -- -- --
2018-05-17 11:00:00 11.6 4 Este 15 Este 0 -- -- --
2018-05-17 10:00:00 9.5 5 Este 15 Este 0 -- -- --
2018-05-17 09:00:00 7.9 3 Este 15 Nordeste 0 -- -- --
2018-05-17 08:00:00 6.6 4 Este 20 Este 0 -- -- --
2018-05-17 07:00:00 6.3 5 Este 23 Nordeste 0 -- -- --
2018-05-17 06:00:00 6.6 7 Este 19 Este 0 -- -- --
2018-05-17 05:00:00 6.9 4 Este 15 Este 0 -- -- --
2018-05-17 04:00:00 6.9 5 Este 18 Sudeste 0 -- -- --
2018-05-17 03:00:00 7.1 5 Este 21 Este 0 -- -- --
2018-05-17 02:00:00 7.4 5 Este 21 Este 0 -- -- --
2018-05-17 01:00:00 7.5 4 Este 19 Este 0 -- -- --
2018-05-17 00:00:00 7.8 5 Este 18 Nordeste 0 -- -- --
2018-05-16 23:00:00 8.2 4 Nordeste 15 Norte 0 -- -- --
2018-05-16 22:00:00 9.3 4 Nordeste 14 Este 0 -- -- --
2018-05-16 21:00:00 10.8 8 Nordeste 15 Nordeste 0 -- -- --
2018-05-16 20:00:00 12.8 6 Norte 19 Norte 0 -- -- --
2018-05-16 19:00:00 14.5 6 Nordeste 23 Nordeste 0 -- -- --
2018-05-16 18:00:00 16.1 7 Nordeste 22 Nordeste 0 -- -- --
2018-05-16 17:00:00 16.8 8 Nordeste 18 Nordeste 0 -- -- --
2018-05-16 16:00:00 16.6 4 Nordeste 18 Este 0 -- -- --
2018-05-16 15:00:00 15.9 4 Nordeste 17 Nordeste 0 -- -- --
2018-05-16 14:00:00 14.6 4 Este 21 Este 0 -- -- --
2018-05-16 13:00:00 13.4 5 Este 21 Este 0 -- -- --
2018-05-16 12:00:00 10.3 6 Este 18 Nordeste 0 -- -- --
2018-05-16 11:00:00 7.7 5 Nordeste 20 Este 0 -- -- --
2018-05-16 10:00:00 6.2 5 Este 22 Nordeste 0 -- -- --
2018-05-16 09:00:00 5.7 6 Nordeste 21 Este 0 -- -- --
2018-05-16 08:00:00 5.3 5 Este 23 Nordeste 0 -- -- --
2018-05-16 07:00:00 5.2 6 Nordeste 19 Nordeste 0 -- -- --
2018-05-16 06:00:00 5.3 7 Nordeste 25 Nordeste 0 -- -- --
2018-05-16 05:00:00 5.3 6 Este 23 Este 0 -- -- --
2018-05-16 04:00:00 5.2 7 Nordeste 26 Nordeste 0 -- -- --
2018-05-16 03:00:00 5.1 8 Nordeste 27 Nordeste 0 -- -- --
2018-05-16 02:00:00 5.2 6 Nordeste 26 Este 0 -- -- --
2018-05-16 01:00:00 5.3 5 Nordeste 22 Este 0 -- -- --
2018-05-16 00:00:00 5.9 6 Nordeste 27 Este 0 -- -- --
2018-05-15 23:00:00 6.3 10 Nordeste 27 Este 0 -- -- --
2018-05-15 22:00:00 7.1 9 Nordeste 26 Nordeste 0 -- -- --
2018-05-15 21:00:00 9.3 8 Nordeste 24 Nordeste 0 -- -- --
2018-05-15 20:00:00 11.1 8 Nordeste 26 Norte 0 -- -- --
2018-05-15 19:00:00 13.3 9 Nordeste 25 Este 0 -- -- --
2018-05-15 18:00:00 14.2 10 Nordeste 29 Nordeste 0 -- -- --
2018-05-15 17:00:00 14.9 10 Nordeste 25 Norte 0 -- -- --
2018-05-15 16:00:00 15.3 8 Nordeste 24 Nordeste 0 -- -- --
2018-05-15 15:00:00 15.2 8 Nordeste 28 Nordeste 0 -- -- --
2018-05-15 14:00:00 14.4 9 Nordeste 24 Nordeste 0 -- -- --
2018-05-15 13:00:00 13.3 4 Nordeste 16 Sudeste 0 -- -- --
2018-05-15 12:00:00 10.9 6 Nordeste 21 Norte 0 -- -- --
2018-05-15 11:00:00 9.2 5 Nordeste 14 Nordeste 0 -- -- --
2018-05-15 10:00:00 7.6 6 Nordeste 18 Nordeste 0 -- -- --
2018-05-15 09:00:00 5.1 5 Nordeste 17 Nordeste 0 -- -- --
2018-05-15 08:00:00 4.2 8 Nordeste 21 Nordeste 0 -- -- --
2018-05-15 07:00:00 3.1 5 Nordeste 16 Nordeste 0 -- -- --
2018-05-15 06:00:00 3 5 Nordeste 20 Este 0 -- -- --
2018-05-15 05:00:00 2.4 4 Este 20 Este 0 -- -- --
2018-05-15 04:00:00 2.9 3 Este 17 Este 0 -- -- --
2018-05-15 03:00:00 3.3 3 Nordeste 19 Nordeste 0 -- -- --
2018-05-15 02:00:00 3.8 3 Nordeste 16 Nordeste 0 -- -- --
2018-05-15 01:00:00 4.5 5 Nordeste 18 Este 0 -- -- --
2018-05-15 00:00:00 5.3 6 Nordeste 20 Nordeste 0 -- -- --
2018-05-14 23:00:00 6 5 Nordeste 16 Nordeste 0 -- -- --
2018-05-14 22:00:00 6.9 7 Nordeste 20 Este 0 -- -- --
2018-05-14 21:00:00 8.4 5 Nordeste 18 Nordeste 0 -- -- --
2018-05-14 20:00:00 9.8 7 Norte 23 Norte 0 -- -- --
2018-05-14 19:00:00 11.1 6 Norte 22 Noroeste 0 -- -- --
2018-05-14 18:00:00 11.4 8 Nordeste 22 Norte 0 -- -- --
2018-05-14 17:00:00 11.5 9 Norte 26 Nordeste 0 -- -- --
2018-05-14 16:00:00 11.4 7 Nordeste 26 Norte 0 -- -- --
2018-05-14 15:00:00 10.9 6 Nordeste 24 Nordeste 0 -- -- --
2018-05-14 14:00:00 10.3 8 Nordeste 22 Norte 0 -- -- --
2018-05-14 13:00:00 10.2 8 Nordeste 27 Noroeste 0 -- -- --
2018-05-14 12:00:00 8 10 Norte 28 Noroeste 0.2 -- -- --
2018-05-14 11:00:00 7.3 10 Noroeste 27 Noroeste 0 -- -- --
2018-05-14 10:00:00 6.8 13 Oeste 25 Oeste 1 -- -- --
2018-05-14 09:00:00 6.3 13 Oeste 26 Oeste 0.2 -- -- --
2018-05-14 08:00:00 6.1 15 Oeste 32 Oeste 0.6 -- -- --
2018-05-14 07:00:00 5.9 20 Oeste 32 Oeste 0.4 -- -- --
2018-05-14 06:00:00 5.6 16 Oeste 32 Oeste 0.4 -- -- --
2018-05-14 05:00:00 5.3 19 Oeste 34 Oeste 0.4 -- -- --
2018-05-14 04:00:00 5 14 Oeste 33 Sudoeste 0.4 -- -- --
2018-05-14 03:00:00 4.8 15 Oeste 35 Oeste 0.4 -- -- --
2018-05-14 02:00:00 4.8 7 Oeste 28 Oeste 0.4 -- -- --
2018-05-14 01:00:00 4.8 10 Oeste 26 Sudoeste 1.2 -- -- --
2018-05-11 20:00:00 -- -- -- -- -- -- -- -- --
2018-05-11 19:00:00 -- -- -- -- -- -- -- -- --
2018-05-11 18:00:00 -- -- -- -- -- -- -- -- --
2018-05-11 17:00:00 -- -- -- -- -- -- -- -- --
2018-05-11 16:00:00 11 9 Sur 25 Sudoeste 0 -- -- --
2018-05-11 15:00:00 10.5 7 Sur 25 Sudoeste 0 -- -- --
2018-05-11 14:00:00 11.2 8 Sudoeste 33 Sur 0 -- -- --
2018-05-11 13:00:00 10.2 11 Sur 30 Sur 0 -- -- --
2018-05-11 12:00:00 10.5 11 Sudoeste 27 Sudoeste 0 -- -- --
2018-05-11 11:00:00 11.1 9 Sudoeste 24 Sudoeste 0 -- -- --
2018-05-11 10:00:00 9.8 6 Sudoeste 25 Sudoeste 0 -- -- --
2018-05-11 09:00:00 9.5 11 Sudoeste 27 Sudoeste 0 -- -- --
2018-05-11 08:00:00 9.4 7 Sur 25 Sudoeste 0 -- -- --
2018-05-11 07:00:00 10.3 9 Oeste 23 Sur 0 -- -- --
2018-05-11 06:00:00 11.5 10 Sudoeste 36 Sudoeste 0 -- -- --
2018-05-11 05:00:00 12.2 15 Sudoeste 32 Sudoeste 0 -- -- --
2018-05-11 04:00:00 12.2 13 Sur 28 Sur 0 -- -- --
2018-05-11 03:00:00 12.5 16 Sur 27 Sur 0 -- -- --
2018-05-11 02:00:00 12.7 12 Sur 23 Sur 0 -- -- --
2018-05-11 01:00:00 13.2 12 Sur 23 Sur 0 -- -- --
2018-05-11 00:00:00 13 12 Sur 20 Sur 0 -- -- --
2018-05-10 23:00:00 12.4 6 Sudeste 12 Sudeste 0 -- -- --
2018-05-10 22:00:00 12 6 Sudeste 11 Este 0 -- -- --
2018-05-10 21:00:00 13.7 4 Sudoeste 19 Oeste 0 -- -- --
2018-05-10 20:00:00 14.6 11 Oeste 20 Oeste 0 -- -- --
2018-05-10 19:00:00 16.1 11 Oeste 22 Oeste 0 -- -- --
2018-05-10 18:00:00 16.9 14 Oeste 23 Noroeste 0 -- -- --
2018-05-10 17:00:00 17.1 4 Este 15 Este 0 -- -- --
2018-05-10 16:00:00 15.9 4 Nordeste 15 Sudeste 0 -- -- --
2018-05-10 15:00:00 14.9 4 Nordeste 18 Nordeste 0 -- -- --
2018-05-10 14:00:00 13.8 5 Este 18 Sudeste 0 -- -- --
2018-05-10 13:00:00 12.6 5 Este 19 Nordeste 0 -- -- --
2018-05-10 12:00:00 11.1 5 Nordeste 22 Este 0 -- -- --
2018-05-10 11:00:00 8.8 5 Nordeste 28 Este 0 -- -- --
2018-05-10 10:00:00 6.3 6 Nordeste 22 Este 0 -- -- --
2018-05-10 09:00:00 5.2 6 Nordeste 21 Nordeste 0 -- -- --
2018-05-10 08:00:00 4.5 6 Nordeste 23 Nordeste 0 -- -- --
2018-05-10 07:00:00 4.7 5 Este 22 Norte 0 -- -- --
2018-05-10 06:00:00 4.8 7 Nordeste 22 Norte 0 -- -- --
2018-05-10 05:00:00 5 8 Nordeste 21 Nordeste 0 -- -- --
2018-05-10 04:00:00 5.2 9 Nordeste 29 Nordeste 0 -- -- --
2018-05-10 03:00:00 5.3 4 Nordeste 20 Norte 0 -- -- --
2018-05-10 02:00:00 5.3 3 Nordeste 12 Nordeste 0 -- -- --
2018-05-10 01:00:00 5.3 4 Nordeste 12 Noroeste 0 -- -- --
2018-05-10 00:00:00 5.1 6 Noroeste 18 Oeste 0 -- -- --
2018-05-09 23:00:00 5.9 10 Noroeste 21 Noroeste 0 -- -- --
2018-05-09 22:00:00 6.9 10 Noroeste 18 Oeste 0 -- -- --
2018-05-09 21:00:00 8.6 7 Noroeste 24 Noroeste 0 -- -- --
2018-05-09 20:00:00 9.2 12 Noroeste 27 Noroeste 0 -- -- --
2018-05-09 19:00:00 10.5 6 Oeste 23 Noroeste 0 -- -- --
2018-05-09 18:00:00 12.1 7 Noroeste 20 Oeste 0 -- -- --
2018-05-09 17:00:00 11.8 9 Noroeste 24 Noroeste 0 -- -- --
2018-05-09 16:00:00 11.8 12 Oeste 25 Noroeste 0 -- -- --
2018-05-09 15:00:00 11.6 10 Oeste 22 Oeste 0 -- -- --
2018-05-09 14:00:00 11.4 10 Noroeste 19 Noroeste 0 -- -- --
2018-05-09 13:00:00 10.3 3 Nordeste 11 Noroeste 0 -- -- --
2018-05-09 12:00:00 8.8 4 Norte 9 Oeste 0 -- -- --
2018-05-09 11:00:00 7.5 3 Este 10 Nordeste 0 -- -- --
2018-05-09 10:00:00 6.8 4 Este 14 Este 0 -- -- --
2018-05-09 09:00:00 6.6 4 Este 15 Este 0 -- -- --
2018-05-09 08:00:00 6.3 4 Este 11 Este 0 -- -- --
2018-05-09 07:00:00 6.4 2 Este 14 Este 0 -- -- --
2018-05-09 06:00:00 6.6 5 Este 13 Sudeste 0 -- -- --
2018-05-09 05:00:00 6.8 0 Calma 14 Este 0 -- -- --
2018-05-09 04:00:00 6.9 4 Este 14 Este 0 -- -- --
2018-05-09 03:00:00 7 6 Nordeste 16 Este 0 -- -- --
2018-05-09 02:00:00 7.4 4 Este 15 Este 0 -- -- --
2018-05-09 01:00:00 7.4 5 Este 17 Este 0 -- -- --
2018-05-09 00:00:00 7.9 6 Nordeste 15 Norte 0 -- -- --
2018-05-08 23:00:00 8.7 5 Norte 15 Nordeste 0 -- -- --
2018-05-08 22:00:00 9.6 5 Nordeste 20 Norte 0 -- -- --
2018-05-08 21:00:00 11.6 8 Noroeste 21 Noroeste 0 -- -- --
2018-05-08 20:00:00 13.7 5 Nordeste 20 Norte 0 -- -- --
2018-05-08 19:00:00 15.8 7 Nordeste 19 Nordeste 0 -- -- --
2018-05-08 18:00:00 16.2 5 Nordeste 24 Nordeste 0 -- -- --
2018-05-08 17:00:00 15.9 8 Nordeste 21 Norte 0 -- -- --
2018-05-08 16:00:00 14.7 10 Noroeste 31 Norte 0 -- -- --
2018-05-08 15:00:00 13.8 13 Noroeste 26 Noroeste 0 -- -- --
2018-05-08 14:00:00 16.3 8 Norte 22 Nordeste 0 -- -- --
2018-05-08 13:00:00 14.3 7 Norte 17 Nordeste 0 -- -- --
2018-05-08 12:00:00 12 3 Este 10 Este 0 -- -- --
2018-05-08 11:00:00 9.7 4 Este 12 Este 0 -- -- --
2018-05-08 10:00:00 9.2 3 Este 11 Este 0 -- -- --
2018-05-08 09:00:00 8.7 3 Nordeste 7 Noroeste 0 -- -- --
2018-05-08 08:00:00 8.7 3 Este 6 Nordeste 0 -- -- --
2018-05-08 07:00:00 9.1 0 Calma 9 Este 0 -- -- --
2018-05-08 06:00:00 9.5 4 Nordeste 13 Este 0 -- -- --
2018-05-08 05:00:00 10.2 4 Este 12 Nordeste 0 -- -- --
2018-05-08 04:00:00 11.3 3 Este 8 Este 0 -- -- --
2018-05-08 03:00:00 11.9 0 Calma 6 Sudoeste 0 -- -- --
2018-05-08 02:00:00 12.5 0 Calma 6 Sudoeste 0 -- -- --
2018-05-08 01:00:00 13.4 2 Este 4 Sudeste 0 -- -- --
2018-05-08 00:00:00 14.1 0 Calma 7 Nordeste 0 -- -- --
2018-05-07 23:00:00 14.4 0 Calma 10 Nordeste 0 -- -- --
2018-05-07 22:00:00 15.5 6 Nordeste 13 Norte 0 -- -- --
2018-05-07 21:00:00 15.7 6 Noroeste 14 Noroeste 0 -- -- --
2018-05-07 20:00:00 17.5 4 Nordeste 13 Este 0 -- -- --
2018-05-07 19:00:00 18.8 3 Nordeste 18 Nordeste 0 -- -- --
2018-05-07 18:00:00 19.5 5 Noroeste 18 Norte 0 -- -- --
2018-05-07 17:00:00 20.2 7 Noroeste 23 Oeste 0 -- -- --
2018-05-07 16:00:00 21.3 10 Noroeste 22 Noroeste 0 -- -- --
2018-05-07 15:00:00 20.3 10 Oeste 23 Oeste 0 -- -- --
2018-05-07 14:00:00 20.6 9 Oeste 22 Noroeste 0 -- -- --
2018-05-07 13:00:00 19.8 9 Oeste 16 Oeste 0 -- -- --
2018-05-07 12:00:00 19.1 5 Noroeste 10 Oeste 0 -- -- --
2018-05-07 11:00:00 17.8 4 Noroeste 9 Oeste 0 -- -- --
2018-05-07 10:00:00 16.9 0 Calma 10 Sur 0 -- -- --
2018-05-07 09:00:00 15.9 3 Sur 12 Sur 0 -- -- --
2018-05-07 08:00:00 14.6 6 Sur 14 Sudeste 0 -- -- --
2018-05-07 07:00:00 14.7 8 Sur 15 Sur 0 -- -- --
2018-05-07 06:00:00 14.7 10 Sur 23 Sudeste 0 -- -- --
2018-05-07 05:00:00 14.8 14 Sudeste 23 Sudeste 0 -- -- --
2018-05-07 04:00:00 14.3 9 Sudeste 12 Sudeste 0 -- -- --
2018-05-07 03:00:00 13.6 2 Este 11 Este 0 -- -- --
2018-05-07 02:00:00 12.9 3 Este 7 Este 0 -- -- --
2018-05-07 01:00:00 13.1 3 Este 9 Este 0 -- -- --
2018-05-07 00:00:00 14 2 Este 9 Este 0 -- -- --
2018-05-06 23:00:00 15 4 Nordeste 20 Nordeste 0 -- -- --
2018-05-06 22:00:00 15.3 5 Nordeste 14 Nordeste 0 -- -- --
2018-05-06 21:00:00 16.4 4 Nordeste 14 Nordeste 0 -- -- --
2018-05-06 20:00:00 18 5 Nordeste 17 Norte 0 -- -- --
2018-05-06 19:00:00 18.9 8 Norte 24 Norte 0 -- -- --
2018-05-06 18:00:00 20.4 8 Noroeste 27 Noroeste 0 -- -- --
2018-05-06 17:00:00 20.8 12 Oeste 26 Oeste 0 -- -- --
2018-05-06 16:00:00 20.7 10 Oeste 18 Oeste 0 -- -- --
2018-05-06 15:00:00 19.6 3 Oeste 17 Sudeste 0 -- -- --
2018-05-06 14:00:00 20.4 5 Este 16 Nordeste 0 -- -- --
2018-05-06 13:00:00 19.1 4 Este 16 Este 0 -- -- --
2018-05-06 12:00:00 18.4 6 Este 17 Este 0 -- -- --
2018-05-06 11:00:00 16.5 5 Este 22 Este 0 -- -- 66
2018-05-06 10:00:00 14.4 8 Este 28 Este 0 -- -- 70
2018-05-06 09:00:00 13 11 Sudeste 27 Sudeste 0 -- -- 69
2018-05-06 08:00:00 12.1 14 Sudeste 30 Sudeste 0 -- -- 70
2018-05-06 07:00:00 12.2 17 Sudeste 31 Sudeste 0 -- -- 68
2018-05-06 06:00:00 12.4 17 Sudeste 33 Este 0 -- -- 66
2018-05-06 05:00:00 12.5 18 Sudeste 34 Sudeste 0 -- -- 67
2018-05-06 04:00:00 12.4 18 Sudeste 36 Sudeste 0 -- -- 69
2018-05-06 03:00:00 12.3 19 Sudeste 40 Sudeste 0 -- -- 72
2018-05-06 02:00:00 10.9 14 Sudeste 30 Sudeste 0 -- -- 81
2018-05-06 01:00:00 9.3 7 Este 16 Sudeste 0 -- -- 90
2018-05-06 00:00:00 9.7 4 Este 15 Este 0 -- -- 88
2018-05-05 23:00:00 10.6 4 Este 17 Este 0 -- -- 85
2018-05-05 22:00:00 11.4 4 Este 13 Este 0 -- -- 82
2018-05-05 21:00:00 13 5 Nordeste 13 Norte 0 -- -- 76
2018-05-05 20:00:00 14.7 6 Norte 18 Norte 0 -- -- 70
2018-05-05 19:00:00 16.8 7 Norte 20 Nordeste 0 -- -- 65
2018-05-05 18:00:00 18.3 6 Norte 19 Norte 0 -- -- 57
2018-05-05 17:00:00 19.3 7 Nordeste 19 Nordeste 0 -- -- 50
2018-05-05 16:00:00 19.4 5 Norte 17 Nordeste 0 -- -- 49
2018-05-05 15:00:00 18.5 5 Nordeste 14 Nordeste 0 -- -- 48
2018-05-05 14:00:00 17.8 3 Nordeste 12 Este 0 -- -- 54
2018-05-05 13:00:00 15.8 4 Este 9 Este 0 -- -- 49
2018-05-05 12:00:00 13.4 5 Este 10 Este 0 -- -- 63
2018-05-05 11:00:00 11.7 4 Este 9 Nordeste 0 -- -- 68
2018-05-05 10:00:00 11 3 Este 7 Este 0 -- -- 64
2018-05-05 09:00:00 8 3 Este 11 Este 0 -- -- 67
2018-05-05 08:00:00 5.1 5 Este 15 Este 0 -- -- 76
2018-05-05 07:00:00 4.5 5 Este 10 Este 0 -- -- 81
2018-05-05 06:00:00 4.6 4 Este 19 Sudeste 0 -- -- 89
2018-05-05 05:00:00 7.7 13 Sudeste 21 Sudeste 0 -- -- 68
2018-05-05 04:00:00 4.5 10 Sudeste 15 Sudeste 0 -- -- 98
2018-05-05 03:00:00 4.1 7 Este 15 Este 0 -- -- 95
2018-05-05 02:00:00 4.4 5 Este 18 Nordeste 0 -- -- 94
2018-05-05 01:00:00 4.7 5 Este 21 Nordeste 0 -- -- 95
2018-05-05 00:00:00 5.3 7 Este 19 Este 0 -- -- 93
2018-05-04 23:00:00 6.2 6 Este 23 Nordeste 0 -- -- 89
2018-05-04 22:00:00 7.5 6 Este 28 Este 0 -- -- 83
2018-05-04 21:00:00 9 5 Nordeste 22 Este 0 -- -- 75
2018-05-04 20:00:00 10.9 9 Nordeste 34 Este 0 -- -- 65
2018-05-04 19:00:00 12.4 12 Nordeste 29 Nordeste 0 -- -- 57
2018-05-04 18:00:00 13.4 9 Nordeste 31 Nordeste 0 -- -- 52
2018-05-04 17:00:00 14.1 7 Este 30 Nordeste 0 -- -- 53
2018-05-04 16:00:00 14.4 8 Este 26 Nordeste 0 -- -- 50
2018-05-04 15:00:00 13.9 8 Este 27 Nordeste 0 -- -- 47
2018-05-04 14:00:00 13.1 10 Nordeste 28 Nordeste 0 -- -- 53
2018-05-04 13:00:00 12 7 Nordeste 28 Este 0.2 -- -- 52
2018-05-04 12:00:00 10.4 8 Nordeste 26 Nordeste 0 -- -- 61
2018-05-04 11:00:00 8 8 Nordeste 27 Nordeste 0 -- -- 76
2018-05-04 10:00:00 6.3 8 Nordeste 26 Nordeste 0 -- -- 82
2018-05-04 09:00:00 3.9 9 Este 24 Nordeste 0 -- -- 86
2018-05-04 08:00:00 1.7 7 Nordeste 26 Nordeste 0 -- -- 95
2018-05-04 07:00:00 1.1 10 Nordeste 30 Nordeste 0 -- -- 95
2018-05-04 06:00:00 1.2 8 Nordeste 32 Este 0 -- -- 95
2018-05-04 05:00:00 1.3 9 Este 24 Este 0 -- -- 94
2018-05-04 04:00:00 1.5 9 Nordeste 27 Este 0 -- -- 93
2018-05-04 03:00:00 1.8 9 Nordeste 26 Nordeste 0 -- -- 92
2018-05-04 02:00:00 2 9 Nordeste 32 Este 0 -- -- 93
2018-05-04 01:00:00 2.3 11 Nordeste 27 Este 0 -- -- 95
2018-05-04 00:00:00 2.6 12 Nordeste 30 Este 0 -- -- 95
2018-05-03 23:00:00 3.2 10 Nordeste 28 Este 0 -- -- 94
2018-05-03 22:00:00 3.9 9 Nordeste 25 Nordeste 0 -- -- 92
2018-05-03 21:00:00 5.4 8 Nordeste 25 Nordeste 0 -- -- 86
2018-05-03 20:00:00 6.4 8 Nordeste 23 Nordeste 0 -- -- 80
2018-05-03 19:00:00 7.6 9 Nordeste 23 Nordeste 0 -- -- 75
2018-05-03 18:00:00 8.5 8 Nordeste 26 Nordeste 0 -- -- 72
2018-05-03 17:00:00 9 10 Nordeste 24 Nordeste 0 -- -- 70
2018-05-03 16:00:00 8.3 10 Nordeste 25 Nordeste 0 -- -- 75
2018-05-03 15:00:00 8.4 8 Nordeste 30 Este 0 -- -- 74
2018-05-03 14:00:00 7.6 10 Nordeste 26 Nordeste 0 -- -- 86
2018-05-03 13:00:00 6.6 10 Nordeste 28 Nordeste 0 -- -- 84
2018-05-03 12:00:00 4.7 9 Nordeste 30 Nordeste 0 -- -- 96
2018-05-03 11:00:00 4.5 11 Nordeste 35 Nordeste 0 -- -- 100
2018-05-03 10:00:00 3.3 10 Nordeste 30 Este 0 -- -- 100
2018-05-03 09:00:00 2.8 9 Nordeste 23 Nordeste 0 -- -- 100
2018-05-03 08:00:00 2.9 5 Nordeste 20 Norte 0 -- -- 100
2018-05-03 07:00:00 3.3 6 Nordeste 18 Nordeste 0 -- -- 100
2018-05-03 06:00:00 3.8 6 Nordeste 18 Nordeste 0 -- -- 100
2018-05-03 05:00:00 4.5 8 Nordeste 17 Nordeste 0 -- -- 100
2018-05-03 04:00:00 4.8 4 Nordeste 19 Nordeste 0 -- -- 100
2018-05-03 03:00:00 5.5 6 Nordeste 16 Nordeste 0 -- -- 100
2018-05-03 02:00:00 5.9 5 Nordeste 15 Este 0.8 -- -- 100
2018-05-03 01:00:00 6.3 4 Norte 12 Noroeste 0.6 -- -- 100
2018-05-03 00:00:00 6.5 6 Norte 24 Oeste 2 -- -- 100
2018-05-02 23:00:00 7 12 Oeste 20 Oeste 2 -- -- 100
2018-05-02 22:00:00 7 7 Oeste 19 Noroeste 1.4 -- -- 100
2018-05-02 21:00:00 7 8 Oeste 21 Sudoeste 1.4 -- -- 100
2018-05-02 20:00:00 7 6 Sudoeste 18 Sudoeste 0.6 -- -- 100
2018-05-02 19:00:00 6.9 8 Sudoeste 21 Sur 0.2 -- -- 100
2018-05-02 18:00:00 6.8 6 Sur 20 Sudoeste 0.2 -- -- 100
2018-05-02 17:00:00 6.7 8 Sur 31 Sudoeste 0.4 -- -- 100
2018-05-02 16:00:00 6.3 12 Sudoeste 27 Sudoeste 0 -- -- 100
2018-05-02 15:00:00 6.2 9 Sudoeste 25 Sudoeste 0.6 -- -- 100
2018-05-02 14:00:00 5.8 10 Sudoeste 28 Sudoeste 0.4 -- -- 100
2018-05-02 13:00:00 5.7 7 Sudoeste 24 Sudoeste 0.2 -- -- 100
2018-05-02 12:00:00 5.3 9 Sur 28 Sur 0.2 -- -- 100
2018-05-02 11:00:00 5 8 Sudoeste 22 Sudoeste 0 -- -- 97
2018-05-02 10:00:00 4.5 9 Sudoeste 22 Sudoeste 0 -- -- 97
2018-05-02 09:00:00 4.1 10 Sudoeste 35 Sudoeste 0 -- -- 97
2018-05-02 08:00:00 3.5 13 Sudoeste 30 Sudoeste 0.2 -- -- 97
2018-05-02 07:00:00 3 8 Sudoeste 26 Sur 0 -- -- 96
2018-05-02 06:00:00 2.5 7 Sur 32 Sudoeste 0.4 -- -- 94
2018-05-02 05:00:00 1.9 11 Sur 29 Sur 0 -- -- 88
2018-05-02 04:00:00 2.3 15 Sudoeste 34 Sudoeste 0 -- -- 79
2018-05-02 03:00:00 2.7 15 Sudoeste 35 Sudoeste 0 -- -- 69
2018-05-02 02:00:00 3.2 12 Sudoeste 30 Sudoeste 0 -- -- 66
2018-05-02 01:00:00 3.1 9 Sudoeste 27 Sudoeste 0 -- -- 78
2018-05-02 00:00:00 3.3 5 Sudeste 20 Oeste 0 -- -- 78
2018-05-01 23:00:00 4.2 6 Oeste 24 Oeste 0 -- -- 83
2018-05-01 22:00:00 4.9 10 Oeste 31 Oeste 0 -- -- 79
2018-05-01 21:00:00 5.9 14 Oeste 28 Oeste 0 -- -- 72
2018-05-01 20:00:00 8.2 11 Oeste 23 Oeste 0 -- -- 65
2018-05-01 19:00:00 8.8 8 Sudoeste 24 Sudoeste 0 -- -- 51
2018-05-01 18:00:00 9.7 8 Sudoeste 25 Sudoeste 0 -- -- 51
2018-05-01 17:00:00 9.7 10 Oeste 24 Oeste 0 -- -- 46
2018-05-01 16:00:00 8.8 12 Oeste 27 Oeste 0 -- -- 52
2018-05-01 15:00:00 7.9 13 Oeste 28 Sudoeste 0 -- -- 66
2018-05-01 14:00:00 6.9 11 Oeste 23 Noroeste 0 -- -- 71
2018-05-01 13:00:00 5.8 5 Sudoeste 12 Sur 0 -- -- 75
2018-05-01 12:00:00 3.6 3 Oeste 10 Noroeste 0 -- -- 88
2018-05-01 11:00:00 4.4 3 Este 9 Sudeste 0 -- -- 88
2018-05-01 10:00:00 2.5 4 Este 13 Este 0.2 -- -- 92
2018-05-01 09:00:00 0.8 4 Este 8 Este 0 -- -- 99
2018-05-01 08:00:00 0.1 3 Nordeste 8 Norte 0 -- -- 100
2018-05-01 07:00:00 -0.4 4 Este 10 Este 0 -- -- 100
2018-05-01 06:00:00 -0.2 4 Nordeste 10 Este 0 -- -- 100
2018-05-01 05:00:00 -0.3 3 Nordeste 10 Nordeste 0 -- -- 100
2018-05-01 04:00:00 -0.2 5 Nordeste 12 Nordeste 0 -- -- 100
2018-05-01 03:00:00 0.2 5 Nordeste 14 Nordeste 0 -- -- 100
2018-05-01 02:00:00 0.4 5 Nordeste 14 Este 0 -- -- 100
2018-05-01 01:00:00 0.5 5 Nordeste 22 Nordeste 0 -- -- 99
2018-05-01 00:00:00 0.9 6 Nordeste 19 Nordeste 0 -- -- 100
2018-04-30 23:00:00 1.2 6 Nordeste 20 Nordeste 0 -- -- 98
2018-04-30 22:00:00 1.8 7 Nordeste 18 Este 0 -- -- 96
2018-04-30 21:00:00 2.9 8 Nordeste 18 Norte 0 -- -- 95
2018-04-30 20:00:00 3.6 6 Noroeste 17 Norte 0 -- -- 94
2018-04-30 19:00:00 4.2 4 Nordeste 15 Norte 0 -- -- 96
2018-04-30 18:00:00 4.2 5 Nordeste 13 Nordeste 0 -- -- 100
2018-04-30 17:00:00 4.1 5 Nordeste 18 Nordeste 0 -- -- 97
2018-04-30 16:00:00 5.2 2 Nordeste 15 Norte 0.2 -- -- 100
2018-04-30 15:00:00 2.7 7 Noroeste 26 Norte 0.4 -- -- 100
2018-04-30 14:00:00 4.8 6 Norte 15 Norte 0 -- -- 93
2018-04-30 13:00:00 2.3 5 Norte 18 Oeste 1.8 -- -- 100
2018-04-30 12:00:00 1.4 10 Oeste 19 Oeste 1.6 -- -- 100
2018-04-30 11:00:00 0.9 11 Oeste 20 Oeste 1.4 -- -- 100
2018-04-30 10:00:00 0.3 8 Oeste 21 Oeste 0.4 -- -- 100
2018-04-30 09:00:00 0.1 6 Sudoeste 21 Sudoeste 0 -- -- 100
2018-04-30 08:00:00 0.1 5 Sudoeste 24 Sudoeste 0 -- -- 100
2018-04-30 07:00:00 0 9 Sudoeste 19 Sudoeste 0 -- -- 100
2018-04-30 06:00:00 0.2 5 Sudoeste 17 Sudoeste 0 -- -- 100
2018-04-30 05:00:00 0.2 6 Sudoeste 17 Sudoeste 0 -- -- 100
2018-04-30 04:00:00 0.1 5 Sudoeste 23 Oeste 0 -- -- 99
2018-04-30 03:00:00 0 5 Sur 17 Sur 0 -- -- 100
2018-04-30 02:00:00 0 5 Sudoeste 32 Sudoeste 0 -- -- 100
2018-04-30 01:00:00 0 13 Sudoeste 29 Sudoeste 0 -- -- 100
2018-04-30 00:00:00 0.1 10 Sudoeste 29 Sudoeste 0.2 -- -- 100
2018-04-29 23:00:00 0.1 10 Sudoeste 28 Sudoeste 0 -- -- 100
2018-04-29 22:00:00 0 5 Sudeste 28 Sudoeste 0 -- -- 100
2018-04-29 21:00:00 0.1 9 Sudoeste 34 Oeste 0.2 -- -- 100
2018-04-29 20:00:00 0.5 12 Sudoeste 30 Sur 1.2 -- -- 100
2018-04-29 19:00:00 1.5 9 Oeste 32 Oeste 1 -- -- 100
2018-04-29 18:00:00 1.5 16 Sudoeste 35 Sudoeste 1.2 -- -- 98
2018-04-29 17:00:00 2 8 Sudoeste 37 Oeste 2.4 -- -- 100
2018-04-29 16:00:00 1.1 12 Sudoeste 40 Oeste 1.2 -- -- 98
2018-04-29 15:00:00 4.2 8 Oeste 30 Sudoeste 0.2 -- -- 100
2018-04-29 14:00:00 2.9 8 Sudoeste 28 Sudoeste 1.4 -- -- 98
2018-04-29 13:00:00 3.6 13 Sudoeste 27 Sur 0 -- -- 93
2018-04-29 12:00:00 3.8 8 Sudoeste 17 Sudoeste 0 -- -- 96
2018-04-29 11:00:00 3.2 5 Sudoeste 16 Sudoeste 0 -- -- 100
2018-04-29 10:00:00 2.2 4 Sur 19 Sudoeste 0.2 -- -- 100
2018-04-29 09:00:00 1.7 6 Sudoeste 20 Sudoeste 0 -- -- 100
2018-04-29 08:00:00 1.7 7 Sudoeste 20 Oeste 0 -- -- 100
2018-04-29 07:00:00 1.7 11 Sudoeste 19 Sudoeste 0 -- -- 100
2018-04-29 06:00:00 1.7 9 Sudoeste 17 Oeste 0 -- -- 100
2018-04-29 05:00:00 1.9 9 Sudoeste 13 Sudoeste 0 -- -- 99
2018-04-29 04:00:00 1.8 10 Oeste 13 Oeste 0 -- -- 99
2018-04-29 03:00:00 2.1 8 Oeste 9 Oeste 0 -- -- 98
2018-04-29 02:00:00 2.4 0 Calma 6 Norte 0 -- -- 98
2018-04-29 01:00:00 2.5 0 Calma 8 Oeste 0.2 -- -- 99
2018-04-29 00:00:00 2.4 8 Oeste 14 Sudoeste 1 -- -- 100
2018-04-28 23:00:00 2.6 7 Oeste 15 Oeste 0.6 -- -- 99
2018-04-28 22:00:00 2.6 3 Este 19 Noroeste 2.6 -- -- 92
2018-04-28 21:00:00 3.4 8 Oeste 19 Oeste 1.8 -- -- 94
2018-04-28 20:00:00 6.3 4 Nordeste 15 Oeste 0 -- -- 80
2018-04-28 19:00:00 8.2 5 Oeste 18 Sudoeste 0 -- -- 55
2018-04-28 18:00:00 8.6 7 Oeste 30 Oeste 0 -- -- 52
2018-04-28 17:00:00 10 13 Oeste 26 Oeste 0 -- -- 48
2018-04-28 16:00:00 9.4 13 Noroeste 28 Oeste 0 -- -- 54
2018-04-28 15:00:00 9.3 11 Oeste 27 Sudoeste 0 -- -- 59
2018-04-28 14:00:00 8 12 Oeste 26 Oeste 0 -- -- 69
2018-04-28 13:00:00 7 13 Oeste 23 Oeste 0 -- -- 73
2018-04-28 12:00:00 5 6 Oeste 15 Oeste 0 -- -- 85
2018-04-28 11:00:00 3.7 5 Noroeste 9 Oeste 0 -- -- 92
2018-04-28 10:00:00 2.6 3 Este 10 Este 0 -- -- 100
2018-04-28 09:00:00 2.2 2 Este 13 Este 0 -- -- 100
2018-04-28 08:00:00 2 4 Este 12 Este 0 -- -- 100
2018-04-28 07:00:00 2.1 3 Este 13 Este 0 -- -- 100
2018-04-28 06:00:00 2.3 3 Este 9 Oeste 0 -- -- 100
2018-04-28 05:00:00 2.1 3 Nordeste 10 Nordeste 0 -- -- 99
2018-04-28 04:00:00 2.1 4 Nordeste 10 Nordeste 0 -- -- 97
2018-04-28 03:00:00 2.4 4 Nordeste 13 Nordeste 0 -- -- 95
2018-04-28 02:00:00 2.3 4 Nordeste 11 Este 0 -- -- 94
2018-04-28 01:00:00 2.7 6 Nordeste 13 Este 0 -- -- 92
2018-04-28 00:00:00 2.8 5 Nordeste 16 Noroeste 0 -- -- 85